JIGSW01 EGVN-EGVN

Flight info

Callsign JIGSW01
Flight time N/A
Altitude 11000
Route BZN DAVENTRY/RC MAM EGSH DAVENTRY/RC BZN
Aircraft A400/H-SGHIRWXY/LB1

Departure

Time 2026-05-04 19:26
Airport RAF Brize Norton (EGVN)

Arrival

Time N/A
Airport RAF Brize Norton (EGVN)
Time Latitude Longitude Altitude Speed Heading
2026-05-04 19:12 51.74424 -1.59427 276 ft 0 kts 309°
2026-05-04 19:22 51.74431 -1.59442 276 ft 6 kts 306°
2026-05-04 19:22 51.74460 -1.59522 273 ft 9 kts 274°
2026-05-04 19:22 51.74438 -1.59657 273 ft 16 kts 252°
2026-05-04 19:22 51.74438 -1.59862 273 ft 20 kts 300°
2026-05-04 19:23 51.74495 -1.60047 275 ft 21 kts 278°
2026-05-04 19:23 51.74494 -1.60241 277 ft 14 kts 301°
2026-05-04 19:23 51.74507 -1.60270 273 ft 0 kts 311°
2026-05-04 19:23 51.74513 -1.60281 277 ft 3 kts 314°
2026-05-04 19:24 51.74548 -1.60333 274 ft 12 kts 319°
2026-05-04 19:24 51.74625 -1.60324 274 ft 11 kts 70°
2026-05-04 19:24 51.74633 -1.60282 274 ft 0 kts 73°
2026-05-04 19:25 51.74645 -1.60215 275 ft 37 kts 73°
2026-05-04 19:25 51.74821 -1.59270 277 ft 135 kts 72°
2026-05-04 19:25 51.75107 -1.57641 598 ft 175 kts 73°
2026-05-04 19:26 51.75451 -1.55619 1116 ft 196 kts 92°
2026-05-04 19:26 51.74661 -1.53844 1751 ft 217 kts 160°
2026-05-04 19:26 51.73194 -1.54368 2579 ft 236 kts 226°
2026-05-04 19:26 51.72688 -1.56868 3378 ft 249 kts 280°
2026-05-04 19:27 51.73568 -1.59244 4075 ft 262 kts 320°
2026-05-04 19:27 51.75001 -1.61068 4846 ft 262 kts 322°
2026-05-04 19:27 51.76413 -1.62618 5319 ft 236 kts 325°
2026-05-04 19:27 51.77754 -1.64184 5897 ft 242 kts 322°
2026-05-04 19:28 51.79091 -1.65859 7107 ft 241 kts 320°
2026-05-04 19:28 51.80402 -1.67536 8398 ft 241 kts 320°
2026-05-04 19:28 51.81725 -1.69227 9632 ft 245 kts 319°
2026-05-04 19:28 51.83114 -1.70991 10469 ft 263 kts 320°
2026-05-04 19:29 51.84556 -1.72803 10899 ft 268 kts 320°
2026-05-04 19:29 51.86042 -1.74653 11024 ft 270 kts 321°
2026-05-04 19:29 51.87535 -1.76497 11027 ft 270 kts 321°
2026-05-04 19:29 51.89031 -1.78343 11026 ft 269 kts 321°
2026-05-04 19:30 51.90603 -1.79986 11024 ft 271 kts 333°
2026-05-04 19:30 51.92407 -1.80766 11022 ft 274 kts 355°
2026-05-04 19:30 51.94286 -1.80269 11026 ft 276 kts 23°
2026-05-04 19:30 51.95812 -1.78413 11035 ft 277 kts 47°
2026-05-04 19:31 51.96968 -1.75956 11034 ft 279 kts 57°
2026-05-04 19:31 51.97957 -1.73188 11032 ft 279 kts 62°
2026-05-04 19:31 51.98821 -1.70405 11027 ft 279 kts 64°
2026-05-04 19:31 51.99669 -1.67558 11030 ft 280 kts 64°
2026-05-04 19:32 52.00524 -1.64719 11031 ft 279 kts 64°
2026-05-04 19:32 52.01396 -1.61909 11042 ft 279 kts 63°
2026-05-04 19:32 52.02291 -1.59104 11043 ft 280 kts 62°
2026-05-04 19:32 52.03189 -1.56343 11045 ft 279 kts 62°
2026-05-04 19:33 52.04107 -1.53554 11048 ft 279 kts 62°
2026-05-04 19:33 52.05027 -1.50770 11047 ft 279 kts 62°
2026-05-04 19:33 52.05945 -1.47993 11045 ft 278 kts 62°
2026-05-04 19:33 52.06864 -1.45211 11044 ft 279 kts 61°
2026-05-04 19:34 52.07783 -1.42419 11043 ft 280 kts 61°
2026-05-04 19:34 52.08696 -1.39641 11047 ft 279 kts 61°
2026-05-04 19:34 52.09612 -1.36850 11050 ft 280 kts 62°
2026-05-04 19:34 52.10527 -1.34057 11053 ft 283 kts 62°
2026-05-04 19:35 52.11474 -1.31163 11057 ft 297 kts 62°
2026-05-04 19:35 52.12438 -1.28213 11053 ft 301 kts 62°
2026-05-04 19:35 52.13424 -1.25191 11051 ft 302 kts 62°
2026-05-04 19:35 52.14410 -1.22164 11051 ft 302 kts 62°
2026-05-04 19:36 52.15397 -1.19131 11048 ft 303 kts 62°
2026-05-04 19:36 52.16383 -1.16098 11042 ft 302 kts 62°
2026-05-04 19:36 52.17364 -1.13076 11042 ft 303 kts 62°
2026-05-04 19:36 52.18349 -1.10038 11047 ft 303 kts 62°
2026-05-04 19:37 52.19335 -1.06995 11042 ft 302 kts 62°
2026-05-04 19:37 52.20308 -1.03986 11043 ft 303 kts 62°
2026-05-04 19:37 52.21288 -1.00951 11043 ft 302 kts 62°
2026-05-04 19:37 52.22271 -0.97904 11039 ft 302 kts 62°
2026-05-04 19:38 52.23255 -0.94853 11046 ft 303 kts 62°
2026-05-04 19:38 52.24228 -0.91829 11041 ft 303 kts 62°
2026-05-04 19:38 52.25199 -0.88809 11039 ft 303 kts 62°
2026-05-04 19:38 52.26177 -0.85764 11037 ft 303 kts 62°
2026-05-04 19:39 52.27155 -0.82712 11039 ft 302 kts 62°
2026-05-04 19:39 52.28131 -0.79665 11048 ft 303 kts 62°
2026-05-04 19:39 52.29106 -0.76620 11047 ft 302 kts 62°
2026-05-04 19:39 52.30075 -0.73587 11051 ft 302 kts 62°
2026-05-04 19:40 52.31044 -0.70548 11044 ft 302 kts 62°
2026-05-04 19:40 52.32010 -0.67517 11048 ft 302 kts 62°
2026-05-04 19:40 52.32654 -0.65496 11047 ft 302 kts 62°
2026-05-04 19:40 52.33627 -0.62437 11044 ft 302 kts 62°
2026-05-04 19:41 52.34595 -0.59387 11049 ft 301 kts 62°
2026-05-04 19:41 52.35559 -0.56351 11043 ft 301 kts 62°
2026-05-04 19:41 52.36500 -0.53278 11034 ft 302 kts 64°
2026-05-04 19:41 52.37378 -0.50147 11035 ft 302 kts 65°
2026-05-04 19:42 52.38215 -0.47000 10601 ft 301 kts 66°
2026-05-04 19:42 52.39046 -0.43799 9884 ft 310 kts 66°
2026-05-04 19:42 52.39891 -0.40514 9107 ft 322 kts 66°
2026-05-04 19:42 52.40768 -0.37114 8327 ft 324 kts 66°
2026-05-04 19:43 52.41649 -0.33712 7569 ft 323 kts 66°
2026-05-04 19:43 52.42527 -0.30336 6834 ft 322 kts 66°
2026-05-04 19:43 52.43407 -0.26960 6077 ft 320 kts 66°
2026-05-04 19:43 52.44279 -0.23616 5405 ft 316 kts 66°
2026-05-04 19:44 52.45126 -0.20364 5065 ft 306 kts 65°
2026-05-04 19:44 52.45948 -0.17207 5000 ft 304 kts 66°
2026-05-04 19:44 52.46778 -0.14016 4997 ft 303 kts 66°
2026-05-04 19:44 52.47605 -0.10829 4999 ft 304 kts 65°
2026-05-04 19:45 52.48436 -0.07628 5001 ft 304 kts 66°
2026-05-04 19:45 52.49260 -0.04444 5001 ft 304 kts 66°
2026-05-04 19:45 52.50088 -0.01243 5002 ft 304 kts 66°
2026-05-04 19:45 52.50900 0.01904 4994 ft 303 kts 66°
2026-05-04 19:46 52.51725 0.05108 4996 ft 304 kts 66°
2026-05-04 19:46 52.52548 0.08307 4997 ft 303 kts 66°
2026-05-04 19:46 52.53368 0.11498 4994 ft 301 kts 65°
2026-05-04 19:46 52.54180 0.14663 4998 ft 300 kts 66°
2026-05-04 19:47 52.54991 0.17830 5002 ft 300 kts 65°
2026-05-04 19:47 52.55799 0.20988 4999 ft 300 kts 65°
2026-05-04 19:47 52.56598 0.24115 4998 ft 300 kts 65°
2026-05-04 19:47 52.57407 0.27283 4999 ft 300 kts 66°
2026-05-04 19:48 52.58214 0.30449 4998 ft 300 kts 65°
2026-05-04 19:48 52.59020 0.33616 5000 ft 300 kts 66°
2026-05-04 19:48 52.59797 0.36680 4992 ft 282 kts 66°
2026-05-04 19:48 52.60533 0.39589 4996 ft 271 kts 65°
2026-05-04 19:49 52.61255 0.42442 5002 ft 269 kts 66°
2026-05-04 19:49 52.61974 0.45285 4997 ft 268 kts 66°
2026-05-04 19:49 52.62681 0.48079 5000 ft 267 kts 65°
2026-05-04 19:49 52.63401 0.50925 5000 ft 268 kts 66°
2026-05-04 19:50 52.64120 0.53774 5003 ft 270 kts 66°
2026-05-04 19:50 52.64991 0.56518 5000 ft 269 kts 55°
2026-05-04 19:50 52.66064 0.58992 4999 ft 269 kts 52°
2026-05-04 19:50 52.67198 0.61454 5001 ft 269 kts 51°
2026-05-04 19:51 52.68336 0.63914 4997 ft 269 kts 51°
2026-05-04 19:51 52.69456 0.66337 4999 ft 269 kts 51°
2026-05-04 19:51 52.70578 0.68764 5000 ft 269 kts 51°
2026-05-04 19:51 52.71715 0.71232 4999 ft 268 kts 51°
2026-05-04 19:52 52.72798 0.73599 4975 ft 251 kts 51°
2026-05-04 19:52 52.73840 0.75873 4624 ft 249 kts 51°
2026-05-04 19:52 52.74903 0.78189 4006 ft 257 kts 51°
2026-05-04 19:52 52.75997 0.80571 3373 ft 262 kts 51°
2026-05-04 19:53 52.77113 0.82973 2805 ft 263 kts 51°
2026-05-04 19:53 52.78199 0.85298 2546 ft 252 kts 51°
2026-05-04 19:53 52.79218 0.87537 2501 ft 236 kts 53°
2026-05-04 19:53 52.80107 0.89714 2496 ft 217 kts 55°
2026-05-04 19:54 52.80991 0.91641 2495 ft 206 kts 43°
2026-05-04 19:54 52.82104 0.93002 2496 ft 200 kts 24°
2026-05-04 19:54 52.83438 0.93497 2503 ft 198 kts 359°
2026-05-04 19:54 52.84774 0.92993 2503 ft 198 kts 337°
2026-05-04 19:55 52.85983 0.91885 2507 ft 197 kts 327°
2026-05-04 19:55 52.87020 0.90592 2503 ft 178 kts 322°
2026-05-04 19:55 52.87881 0.89251 2501 ft 165 kts 309°
2026-05-04 19:55 52.88379 0.87585 2394 ft 160 kts 287°
2026-05-04 19:56 52.88417 0.85701 1968 ft 172 kts 261°
2026-05-04 19:56 52.88021 0.83753 1392 ft 189 kts 245°
2026-05-04 19:56 52.87337 0.81890 1074 ft 183 kts 234°
2026-05-04 19:56 52.86607 0.80357 977 ft 159 kts 230°
2026-05-04 19:57 52.85925 0.79002 888 ft 151 kts 232°
2026-05-04 19:57 52.85299 0.77662 853 ft 147 kts 232°
2026-05-04 19:57 52.84688 0.76304 819 ft 145 kts 233°
2026-05-04 19:57 52.84294 0.75409 896 ft 146 kts 234°